Flag for Germany Weather past 2 weeks in Kassel, Hesse, Germany

Now
34 °F

Fog.


Feels Like: 34 °F
Forecast: 35 / 39 °F
Wind: 1 mph from East

Location: Kassel / Calden

Current Time: Jan 25, 2015 at 7:30:49 PM

Latest Report: Jan 25, 2015 at 6:50 PM


Visibility: 3 mi

Pressure: 30.33 "Hg

Humidity: 100%

Dew point: 34 °F

Location of KasselLocation

Historic Weather in Kassel — Graph

°F

Kassel temperature yesterday

Maximum temperature yesterday: 34 °F (at 7:50 PM)
Minimum temperature yesterday: 25 °F (at 7:50 AM)
Average temperature yesterday: 30 °F

Past Weeks' High & Low Weather Summary

 TemperatureHumidityPressure
High50 °F (Jan 13, 1:20 PM)100% (Jan 19, 5:50 AM)30.33 "Hg (Jan 19, 5:50 AM)
Low21 °F (Jan 21, 7:50 AM)58% (Jan 13, 2:50 PM)29.50 "Hg (Jan 15, 4:20 PM)
Average36 °F83%29.91 "Hg
* Reported Jan 10 6:20 PM — Jan 25 6:20 PM, Kassel, Weather by CustomWeather, © 2014

Note: Actual official high and low records may vary slightly from our data, if they occured in-between our weather recording intervals... More about our weather records

Advertising

Kassel weather history for previous 24 hours

 ConditionsComfort  
Time TempWeatherWind HumidityBarometerVisibility
6:20 PM
Jan 25
34 °FFog.2 mph93%30.33 "Hg3 mi
5:50 PM36 °FFog.3 mph93%30.33 "Hg3 mi
5:20 PM36 °FFog.6 mph93%30.33 "Hg3 mi
4:50 PM36 °FMostly cloudy.8 mph93%30.30 "Hg4 mi
4:20 PM36 °FPartly sunny.12 mph93%30.30 "Hg6 mi
3:50 PM37 °FMostly cloudy.14 mph87%30.30 "Hg6 mi
3:20 PM37 °FCloudy.13 mph87%30.30 "Hg6 mi
2:50 PM37 °FMostly cloudy.10 mph87%30.30 "Hg6 mi
2:20 PM37 °FPartly sunny.10 mph93%30.30 "Hg6 mi
1:50 PM37 °FPartly sunny.12 mph93%30.30 "Hg5 mi
1:20 PM37 °FLow clouds.10 mph93%30.30 "Hg5 mi
12:50 PM36 °FLow clouds.10 mph93%30.30 "Hg5 mi
12:20 PM36 °FLow clouds.12 mph93%30.30 "Hg5 mi
11:50 AM36 °FPartly sunny.9 mph93%30.33 "Hg6 mi
11:20 AM34 °FPartly sunny.10 mph93%30.33 "Hg4 mi
10:50 AM34 °FPartly sunny.10 mph93%30.33 "Hg4 mi
10:20 AM34 °FLow clouds.6 mph93%30.33 "Hg4 mi
9:50 AM34 °FFog.6 mph93%30.33 "Hg3 mi
9:20 AM34 °FLow clouds.6 mph93%30.33 "Hg6 mi
8:50 AM34 °FLow clouds.10 mph93%30.30 "HgN/A
8:20 AM34 °FLow clouds.6 mph93%30.30 "Hg5 mi
7:50 AM34 °FLow clouds.10 mph93%30.30 "Hg5 mi
7:20 AM34 °FLow clouds.12 mph93%30.30 "Hg5 mi
6:50 AM32 °FLow clouds.13 mph100%30.30 "Hg6 mi
6:20 AM32 °FLow clouds.15 mph100%30.27 "Hg6 mi
5:50 AM32 °FLow clouds.13 mph100%30.27 "Hg6 mi
9:50 PM
Jan 24
34 °FFog.16 mph93%30.18 "Hg3 mi
9:20 PM34 °FFog.14 mph93%30.15 "Hg3 mi
8:50 PM34 °FFog.7 mph93%30.15 "Hg3 mi
8:20 PM34 °FFog.12 mph93%30.15 "Hg3 mi
7:50 PM34 °FFog.9 mph93%30.12 "Hg2 mi
7:20 PM32 °FIce fog.8 mph100%30.12 "Hg3 mi
Weather by CustomWeather, © 2014

See weather overviewHow to use our weather pages